Theta_e
320 326 325 325 334 338 339 335 334 332 331 330 329 329 330 330 335 343 341 341 343 340 325 320 319 319 324 331 336 336 332 329 327 323 321 319 319 319 319 319 319 319 319 319 319 319 319 319 320
321 323 326 326 336 341 342 336 335 331 329 328 328 329 329 331 334 336 339 342 343 342 335 320 319 319 323 329 335 336 330 328 325 322 321 320 320 320 320 320 320 320 320 320 320 320 320 320 320
322 325 325 326 334 339 343 341 339 332 328 328 328 329 329 332 333 336 338 342 344 343 342 321 319 319 323 326 334 336 332 329 326 322 321 321 321 320 320 320 320 320 320 320 320 320 320 320 320
324 326 325 326 326 334 338 338 337 336 328 327 327 329 330 332 332 334 339 343 343 345 345 322 319 320 323 324 328 333 334 331 328 323 321 321 321 321 321 321 320 320 320 319 319 320 320 320 320
324 324 327 328 327 326 334 334 335 336 332 328 327 328 331 332 330 331 338 343 343 343 346 326 320 320 322 324 326 330 334 333 330 325 321 321 321 321 321 320 320 320 319 319 319 319 319 320 320
323 325 327 326 327 327 327 329 334 334 334 331 328 328 330 332 330 329 331 342 343 342 346 342 320 320 322 323 325 329 333 335 332 328 321 321 321 321 321 320 320 320 319 318 318 318 319 319 319
322 325 328 327 326 326 327 327 328 328 331 332 330 332 331 331 329 328 330 342 342 341 345 345 327 320 321 322 324 326 329 333 335 330 324 321 321 321 321 320 320 319 319 319 318 318 318 318 318
321 324 324 326 328 327 327 327 325 325 327 329 330 332 332 330 328 328 329 339 341 341 344 346 342 320 321 321 322 325 326 328 332 330 324 321 321 321 321 320 320 320 319 319 319 318 318 317 317
320 323 325 324 325 326 326 327 326 326 325 325 327 330 331 330 328 327 328 332 343 340 345 346 344 325 322 322 322 323 326 327 328 324 321 321 322 321 321 321 320 320 320 319 319 318 318 317 317
320 322 323 324 325 326 326 326 327 327 325 326 326 326 330 331 329 328 327 328 336 341 342 348 346 331 325 334 322 322 324 326 325 321 320 321 321 322 323 324 324 324 322 320 319 319 318 318 318
319 322 322 323 324 324 325 325 325 327 327 327 327 327 328 330 329 327 326 326 333 339 340 344 345 341 339 340 338 329 322 322 322 321 320 321 322 323 338 340 340 337 334 326 321 320 324 326 325
319 320 321 322 323 323 324 324 324 326 328 328 327 327 327 327 329 328 326 325 329 338 341 341 344 343 342 341 342 340 335 322 321 320 321 321 322 326 339 343 343 344 342 336 339 334 334 338 337
319 320 320 320 320 320 321 322 323 325 326 328 327 326 325 325 327 328 326 324 328 331 340 338 342 345 346 343 346 344 343 338 335 329 326 323 325 329 337 341 344 342 342 341 341 340 338 338 337
319 319 320 319 319 320 320 320 321 323 325 324 326 326 324 324 325 328 326 324 325 333 332 340 340 338 341 343 344 345 347 343 340 342 340 341 336 332 342 343 339 333 339 339 339 338 336 333 335
318 318 318 319 319 319 319 320 320 320 320 320 320 323 324 322 322 325 326 324 325 325 326 328 335 336 337 339 342 345 343 344 343 342 343 343 343 342 343 344 338 331 333 335 335 328 329 333 332
317 317 317 318 318 318 319 319 320 319 319 319 319 320 322 321 321 323 325 325 327 325 324 328 327 341 329 329 331 342 343 342 343 343 341 341 341 339 334 333 331 329 328 328 327 328 328 331 337
317 316 316 317 319 319 319 318 319 319 319 320 320 321 321 321 320 320 320 322 325 323 324 326 327 329 338 330 329 331 330 334 330 336 338 340 340 338 334 331 327 325 326 323 323 330 330 336 340
316 317 318 318 319 319 318 318 318 318 319 320 320 320 320 321 321 320 320 322 322 323 320 319 328 328 335 333 330 335 341 342 340 337 337 336 338 339 337 334 332 330 330 323 322 330 331 334 341
319 318 318 318 319 319 318 318 319 318 318 319 320 320 320 320 320 319 319 320 319 321 325 320 318 328 328 329 326 330 329 341 342 341 340 338 338 339 337 333 331 332 333 326 323 329 333 338 343
318 318 317 317 317 317 317 318 318 318 319 318 319 319 319 319 319 319 319 319 319 317 315 321 320 319 327 326 324 329 329 328 334 336 343 342 340 340 340 338 336 335 331 328 324 324 329 334 336
317 316 316 316 317 317 318 318 318 318 318 318 318 318 318 318 318 319 319 319 321 322 318 315 317 318 316 323 323 324 325 326 325 327 329 334 338 334 341 340 337 339 337 331 326 326 328 335 343
315 316 316 316 317 317 317 319 318 319 320 320 319 318 318 317 318 318 319 319 321 321 321 318 315 317 317 315 318 322 322 325 326 324 326 328 330 339 336 341 337 339 337 337 337 326 329 336 334
316 316 316 316 316 317 317 317 318 319 319 319 321 318 318 318 318 319 319 318 319 320 319 320 316 312 313 315 316 318 321 323 324 323 326 327 330 338 342 333 339 341 332 337 339 337 342 345 344
316 316 316 316 316 317 316 317 318 319 320 320 320 318 318 318 318 318 317 318 319 319 319 319 320 320 313 312 313 313 313 317 320 323 325 327 328 327 329 330 330 330 331 336 339 338 339 352 344
316 316 317 317 318 319 318 319 321 321 318 318 319 318 317 315 316 317 318 320 319 319 319 319 319 319 323 323 316 313 313 313 313 314 316 325 327 323 332 332 329 330 331 341 346 342 340 343 345
317 317 318 319 321 320 319 319 318 319 319 317 317 317 316 315 315 316 317 319 318 318 319 319 319 320 322 322 323 323 321 318 313 313 313 316 326 325 322 336 329 330 331 332 333 334 338 345 345
318 319 317 318 319 321 320 318 318 319 320 319 317 316 315 315 316 316 317 317 317 317 318 319 319 319 321 321 319 320 320 319 317 317 316 319 322 324 317 329 332 330 331 331 330 331 331 336 345
317 317 317 318 321 321 317 317 317 319 319 318 316 316 316 316 316 315 317 317 316 315 315 318 319 320 320 320 320 319 319 321 321 320 316 315 314 316 315 317 328 334 337 340 339 336 342 346 347
317 319 318 317 318 321 319 317 319 319 318 318 318 316 316 316 316 316 316 316 316 315 315 317 318 319 319 319 318 318 318 318 320 321 321 321 320 316 312 314 322 328 336 345 341 342 344 348 351
317 317 318 321 320 320 319 319 318 318 318 318 318 316 316 316 316 317 317 316 316 316 316 316 317 317 317 318 317 316 317 318 320 320 320 322 325 326 323 314 312 325 333 346 347 344 344 349 353
Wind_Speed
11 11 11 8 6 6 15 19 22 4 3 7 14 10 14 16 16 11 15 16 1 4 13 20 21 22 25 25 24 21 20 19 17 17 16 15 15 14 13 12 11 10 9 8 7 6 6 6 6
11 7 10 8 6 9 15 22 18 5 15 10 6 6 9 1 16 16 17 10 7 8 7 19 23 24 26 26 24 23 21 19 18 17 16 14 13 12 11 10 9 8 7 6 5 5 4 4 4
11 8 10 5 10 11 15 23 19 12 10 2 2 2 9 8 19 10 15 9 5 10 8 20 24 25 28 28 25 24 21 19 17 16 15 14 12 11 10 8 7 5 4 3 3 3 2 2 2
6 10 10 9 16 13 15 19 20 20 2 4 5 3 5 8 8 12 13 9 5 12 11 23 25 27 29 30 28 26 24 21 18 16 15 13 12 10 8 7 5 4 2 2 1 1 0 1 1
11 8 10 15 16 17 11 14 31 15 17 6 11 8 7 14 10 13 12 9 5 15 16 21 26 28 28 29 29 27 25 22 19 17 16 14 12 10 8 6 4 3 3 3 3 3 3 4 3
17 15 10 13 18 19 14 13 18 19 29 19 7 6 5 10 10 12 14 12 4 14 19 15 27 29 29 28 28 27 24 22 20 18 17 15 13 10 8 6 5 4 4 6 6 6 6 7 7
17 11 18 20 18 20 18 21 13 15 21 28 23 14 13 17 13 13 13 9 3 12 20 17 23 30 30 28 27 27 25 23 21 19 17 16 14 12 10 8 7 6 7 7 7 8 9 10 11
24 14 23 20 18 21 21 14 21 17 21 15 30 14 20 6 10 14 11 9 3 10 20 19 19 30 31 30 28 26 25 23 21 20 19 18 16 14 12 11 9 9 9 10 9 10 12 13 14
23 15 17 23 23 20 23 19 15 15 20 20 22 21 27 12 9 13 13 12 9 7 20 16 19 29 32 31 30 27 25 24 23 21 20 19 17 15 14 12 12 12 12 12 12 13 13 15 17
21 16 24 23 22 21 21 24 22 20 17 22 21 24 30 29 1 5 16 18 8 6 15 15 13 24 27 23 29 29 28 26 24 23 22 20 18 15 13 13 13 13 14 16 16 16 15 17 18
25 21 22 24 27 26 24 26 29 14 13 17 19 25 27 35 6 3 11 16 4 8 7 17 14 16 19 19 21 23 28 28 26 25 23 21 20 16 11 13 15 13 13 17 18 17 14 13 15
23 27 28 27 29 27 23 27 26 18 21 19 16 17 14 16 12 9 3 12 13 4 7 5 15 16 16 16 21 18 21 26 27 26 25 23 20 18 12 12 12 12 15 11 11 13 12 17 16
21 22 25 26 25 25 28 27 23 28 22 15 22 17 15 18 19 14 12 8 11 4 3 13 13 18 19 27 19 20 17 19 19 22 23 25 24 19 18 17 17 13 14 15 14 12 10 15 18
21 18 22 18 23 27 22 21 30 28 23 26 23 27 19 28 25 18 16 17 8 2 5 7 11 13 23 26 23 19 18 18 16 15 19 19 21 21 16 21 19 16 18 13 13 16 18 16 15
17 19 19 20 21 22 22 21 25 27 28 32 33 30 26 19 25 26 22 23 16 16 10 8 8 10 9 25 33 22 23 23 19 21 17 22 21 19 21 23 20 14 14 17 20 19 21 22 17
18 16 17 19 22 27 24 25 22 27 30 32 32 31 22 17 21 21 18 25 25 22 22 19 15 13 5 3 23 35 27 27 23 17 21 24 26 25 22 25 22 19 17 17 17 18 15 19 16
14 17 21 23 22 19 17 22 15 24 25 26 24 18 24 18 14 18 21 19 23 23 24 22 20 17 13 17 4 14 22 24 27 27 26 20 26 29 27 28 26 22 22 20 19 20 18 15 15
18 20 15 18 13 15 15 17 18 23 22 20 12 18 18 19 17 17 13 18 20 16 22 22 27 25 21 18 17 3 2 6 16 25 26 24 23 26 28 26 27 24 26 22 21 23 23 18 20
16 17 17 21 22 17 16 17 14 17 23 25 22 25 27 25 25 20 13 16 18 19 19 12 16 29 35 35 23 24 9 9 6 7 8 25 29 28 31 27 23 27 29 25 24 27 25 17 22
14 17 19 20 20 18 20 22 18 19 22 27 28 27 21 22 25 23 25 19 15 19 21 21 19 18 27 26 20 33 34 29 14 7 6 10 13 19 25 29 23 29 30 30 28 31 32 29 23
15 17 19 20 20 21 21 20 19 25 32 37 35 31 27 24 25 28 31 29 19 15 17 19 26 24 19 24 24 25 32 33 31 37 37 27 22 22 21 22 13 14 21 26 28 31 33 32 24
17 16 17 17 17 15 16 17 20 21 21 18 15 20 24 21 17 13 27 24 17 11 10 15 20 27 22 17 16 30 36 35 36 35 34 31 23 26 25 23 20 15 18 20 27 33 37 29 29
19 16 16 20 19 21 21 14 19 20 22 21 18 25 13 11 11 12 11 11 12 9 13 13 15 19 20 20 20 16 27 34 37 33 28 33 27 32 25 32 24 22 28 22 20 26 29 25 25
18 16 17 18 17 16 24 21 21 18 20 17 14 18 15 9 14 15 15 17 11 13 15 15 11 15 17 20 22 21 24 21 31 36 30 34 41 37 46 40 33 26 32 35 27 19 27 23 25
21 17 13 16 13 15 22 14 10 16 3 12 14 13 13 12 13 12 13 16 15 18 17 14 15 16 11 12 16 21 22 26 25 26 32 38 41 39 43 39 43 41 42 29 23 21 23 35 37
21 18 11 15 15 17 22 6 11 12 18 13 6 19 9 7 12 16 17 18 16 13 14 15 15 14 18 19 17 18 19 21 24 28 28 31 41 40 43 32 37 41 44 50 40 39 39 32 44
18 18 19 18 13 11 17 26 23 19 22 11 10 9 11 9 10 11 9 5 11 16 17 16 15 18 16 22 20 21 23 22 22 23 27 29 32 33 35 34 36 39 40 48 47 34 52 50 44
16 17 15 10 7 18 17 19 12 18 10 11 8 11 10 9 13 12 14 17 16 17 21 19 20 21 21 20 18 23 21 23 26 24 26 29 35 37 33 36 36 30 30 34 34 45 45 42 38
13 17 18 16 13 15 16 15 4 3 2 12 11 13 13 12 15 14 17 19 22 17 22 23 22 23 21 20 19 19 24 25 27 28 28 30 32 34 36 38 36 36 31 31 35 40 43 42 40
19 18 16 15 12 12 11 17 10 7 5 13 19 11 15 17 19 18 17 18 18 18 25 22 20 21 22 20 22 23 20 19 26 29 31 31 30 31 34 37 40 45 38 28 36 41 42 40 40
Wind_Direction
323 337 317 289 246 234 258 243 261 96 338 34 28 350 343 352 41 101 52 35 166 258 167 152 151 153 152 153 152 153 153 150 147 142 137 136 136 136 135 132 126 123 119 113 106 97 88 78 70
323 328 292 270 250 237 239 244 254 36 76 64 4 296 279 346 50 42 21 18 340 255 193 162 156 157 158 158 158 159 158 156 152 148 145 144 143 140 137 133 127 124 122 117 114 105 93 78 66
307 307 293 245 231 237 249 260 325 353 62 51 34 319 321 36 43 14 353 351 319 251 241 177 162 162 163 162 165 164 166 162 161 156 155 154 152 148 145 139 135 130 132 132 134 126 107 85 53
308 278 247 262 260 232 233 284 287 302 88 264 232 307 99 61 53 4 350 341 272 227 251 182 169 165 168 166 167 170 172 171 169 167 167 167 164 160 159 155 154 159 176 200 218 198 229 254 312
255 270 262 257 250 260 207 238 262 287 297 174 215 240 146 106 64 22 359 349 278 211 228 187 175 170 173 173 173 175 179 179 177 177 178 178 177 176 178 178 185 201 231 251 262 283 290 294 292
251 230 256 258 262 257 247 222 230 260 283 290 290 244 259 80 47 15 352 347 229 204 207 208 182 175 174 182 182 182 186 188 188 187 188 187 187 189 198 205 217 234 258 274 283 294 299 297 295
238 248 243 246 254 272 273 219 187 250 258 266 269 326 299 52 29 8 347 5 254 194 202 211 199 184 179 184 189 190 192 196 198 197 198 196 197 200 210 222 236 253 267 277 286 292 295 293 289
239 245 257 257 259 249 261 228 189 214 247 267 265 284 288 30 24 358 350 4 18 191 201 207 210 196 184 187 194 200 200 202 205 206 207 207 206 210 218 231 242 256 269 274 279 283 287 289 289
240 248 252 252 253 263 264 258 197 223 213 245 258 245 252 303 31 350 348 349 8 204 196 205 226 208 193 192 198 201 210 210 211 211 212 214 216 220 231 240 250 258 268 273 277 275 281 285 287
235 242 245 253 268 272 269 258 224 219 210 236 238 255 249 262 75 356 333 348 10 282 178 201 237 207 200 194 206 207 210 215 217 217 218 219 222 231 245 254 253 263 268 271 275 276 278 283 287
231 245 253 261 266 268 274 277 279 204 235 214 232 245 244 244 249 263 332 328 1 302 245 209 209 214 211 184 225 217 218 218 220 223 224 224 229 230 233 260 271 285 298 276 277 278 289 301 301
245 248 249 255 263 276 280 281 281 250 217 206 226 249 272 285 285 224 300 309 353 343 272 162 190 197 215 190 225 244 235 224 225 225 229 231 230 229 220 248 279 288 309 318 314 315 317 313 316
254 251 258 261 265 264 269 276 278 272 264 219 226 231 259 269 285 229 225 252 1 252 333 213 186 178 193 202 196 202 241 226 234 235 233 235 235 234 225 217 227 244 285 304 304 312 299 286 298
287 276 276 272 273 260 261 262 269 262 262 269 226 233 232 260 257 243 224 219 252 148 243 215 245 251 241 226 218 200 188 210 221 235 246 246 244 234 233 236 243 228 215 238 269 276 277 277 280
280 268 271 269 262 265 272 256 251 258 256 256 256 250 225 222 251 262 223 211 244 229 242 213 226 244 229 223 219 226 205 199 199 217 225 246 248 244 226 238 253 249 240 227 239 251 259 263 269
276 265 267 261 248 242 236 254 255 254 247 248 254 255 240 228 233 249 247 239 235 220 226 218 205 246 244 192 218 229 220 220 207 199 229 238 251 250 242 244 245 253 251 250 260 260 262 263 275
249 257 259 262 249 246 227 244 261 264 264 269 245 265 230 229 231 252 270 260 229 216 206 214 202 202 219 242 206 219 224 237 235 225 224 229 242 257 252 247 248 244 252 254 261 262 255 257 264
269 267 285 273 252 251 229 249 264 272 267 271 249 257 255 249 233 235 249 219 200 205 211 212 210 202 204 187 216 254 350 320 224 237 237 225 241 250 255 251 245 246 246 250 259 257 255 256 255
286 295 297 293 300 307 297 278 273 283 284 280 262 216 223 236 246 204 205 213 205 201 202 209 204 214 213 227 251 247 246 276 237 283 266 234 237 244 254 258 250 239 243 251 252 257 266 249 250
295 284 279 283 280 279 278 273 276 275 270 268 268 267 247 231 233 208 191 203 212 222 221 218 223 218 223 227 244 243 251 255 245 265 310 269 251 262 261 255 257 261 250 248 252 253 256 274 252
262 264 272 278 286 287 290 284 279 266 254 252 249 251 253 248 240 224 190 196 191 222 227 226 226 230 224 227 230 257 246 248 254 256 257 254 268 280 262 254 272 265 259 252 255 255 256 251 268
271 276 286 293 289 280 285 283 282 287 291 274 232 236 237 234 240 258 184 176 190 202 266 247 233 232 237 241 248 223 244 256 254 262 262 269 267 261 264 268 277 275 292 292 264 255 257 255 247
280 291 295 296 287 288 270 267 276 268 259 247 238 208 209 230 213 160 180 202 215 227 245 272 263 238 241 244 245 243 231 238 248 257 258 260 250 241 250 271 269 273 283 289 295 267 260 259 258
256 290 278 274 274 262 264 257 262 259 268 258 217 165 176 187 198 198 212 201 209 239 245 240 264 275 258 251 256 255 248 249 244 248 250 246 252 266 259 254 262 281 279 283 283 291 248 257 251
253 249 266 260 251 252 260 284 318 300 246 318 135 152 175 194 211 211 198 188 217 219 218 241 265 275 263 272 259 258 260 257 259 251 254 248 249 262 269 256 257 261 271 273 281 273 267 258 247
259 247 254 271 278 281 287 223 267 309 316 240 188 181 181 197 242 222 212 208 219 227 229 231 234 256 263 274 264 255 254 257 259 259 258 249 236 250 255 254 252 251 251 261 268 273 272 267 249
252 241 260 283 307 289 277 277 278 234 232 241 228 194 241 222 234 247 215 232 258 258 245 238 237 244 258 259 270 280 284 278 267 262 252 244 247 251 249 245 245 244 249 248 253 266 257 264 244
274 290 275 259 264 270 269 282 296 342 170 231 227 240 228 206 223 239 241 235 243 262 266 244 240 241 251 247 251 270 272 279 283 277 268 263 257 258 257 249 245 244 257 261 251 250 263 258 251
254 237 268 262 243 253 267 269 156 261 177 214 258 206 220 226 232 248 249 245 252 267 262 251 243 238 237 245 258 265 273 278 269 277 277 274 272 267 258 254 250 245 239 246 252 257 257 249 243
271 273 256 259 250 234 283 278 135 243 45 316 292 253 246 236 240 250 262 269 275 270 265 258 256 248 251 253 267 266 267 277 276 273 274 271 271 269 266 259 251 247 241 235 241 246 245 239 236